Погода в Корсёре

Дания     55°19′36″N   11°08′42″E
темп.,
°C
ветер,
м/с
пор.,
м/с
влажн.,
%
обл.,
%
осадки,
мм/ч
давл.,
гПа
погр.,
м
4 августа, ср
ср423:00+16зсз33657 0.0 1014408
02:00+15сз44705 0.0 1014433
05:00+14ссз44745 0.0 1014487
08:00+15ссз33685 0.0 1015597
11:00+16сз33630 0.0 1016730
14:00+16ссз43630 0.0 1015506
17:00+18ссз33560 0.0 1015458
20:00+17сз22580 0.0 1014102
5 августа, чт
чт523:00+15св22630 0.0 101586
02:00+14всв22710 0.0 101469
05:00+14всв22721 0.0 101481
08:00+15вюв33695 0.0 1013173
11:00+19юв34593 0.0 1013662
14:00+20юв55521 0.0 1012743
17:00+20вюв67545 0.0 1011639
20:00+18вюв697186 0.0 1010528
6 августа, пт
пт623:00+16в61180100 0.0 1010404
02:00+16в6118559 0.0 1009366
05:00+16в7128594 0.0 1008338
08:00+19вюв7127341 0.4 1007486
11:00+21юв79625 0.3 1007569
14:00+22юв7105623 0.3 1006756
17:00+21вюв11135898 0.4 1006680
20:00+17вюв111583100 1.1 1006580
7 августа, сб
сб723:00+17юв11158697 3.1 1006750
02:00+17юв811855 4.6 1006527
05:00+17ююв569092 0.7 1006286
08:00+18ююз568356 0.8 1006531
11:00+18ююз677880 0.1 1007522
14:00+19ююз5669100 0.1 1006530
17:00+20ю3465100 0.0 1006359
20:00+20вюв4467100 0.1 100654
8 августа, вс
вс823:00+18ю7985100 1.2 1006429
02:00+16ююв348976 5.2 1006344
05:00+17ююв7986100 2.6 1005436
08:00+17ю6885100 4.2 1005432
11:00+18зюз8107985 2.6 1006679
14:00+19юз91073100 2.9 1007931
17:00+18юз111280100 1.3 1008986
20:00+18юз9128250 3.8 1009859